Time,TemperatureF,DewpointF,PressureIn,WindDirection,WindDirectionDegrees,WindSpeedMPH,WindSpeedGustMPH,Humidity,HourlyPrecipIn,Conditions,Clouds,dailyrainin,SoftwareType,DateUTC
2013-05-17 00:03:00,76.0,72.0,29.76,SE,138,10.0,-999.0,87,0.00,,,0.00,,2013-05-17 05:03:00,
2013-05-17 00:14:00,76.0,72.0,29.76,SE,138,10.0,-999.0,87,0.00,,,0.00,,2013-05-17 05:14:00,
2013-05-17 00:22:00,76.0,72.0,29.76,SE,146,7.0,-999.0,87,0.00,,,0.00,,2013-05-17 05:22:00,
2013-05-17 00:32:00,76.0,72.0,29.76,SE,134,4.0,-999.0,87,0.00,,,0.00,,2013-05-17 05:32:00,
2013-05-17 00:42:00,76.0,72.0,29.76,SE,134,4.0,-999.0,87,0.00,,,0.00,,2013-05-17 05:42:00,
2013-05-17 00:52:00,76.0,72.0,29.76,SE,142,6.0,-999.0,88,0.00,,,0.00,,2013-05-17 05:52:00,
2013-05-17 01:01:00,76.0,72.0,29.76,SSE,151,10.0,-999.0,88,0.00,,,0.00,,2013-05-17 06:01:00,
2013-05-17 01:11:00,76.0,72.0,29.76,SSE,151,10.0,-999.0,88,0.00,,,0.00,,2013-05-17 06:11:00,
2013-05-17 01:21:00,76.0,72.0,29.77,SSE,148,3.0,-999.0,88,0.00,,,0.00,,2013-05-17 06:21:00,
2013-05-17 01:32:00,76.0,72.0,29.76,SE,139,4.0,-999.0,88,0.00,,,0.00,,2013-05-17 06:32:00,
2013-05-17 01:42:00,76.0,72.0,29.76,SE,139,4.0,-999.0,88,0.00,,,0.00,,2013-05-17 06:42:00,
2013-05-17 01:51:00,76.0,72.0,29.76,SE,133,6.0,-999.0,88,0.00,,,0.00,,2013-05-17 06:51:00,
2013-05-17 02:02:00,76.0,72.0,29.77,SE,136,7.0,-999.0,88,0.00,,,0.00,,2013-05-17 07:02:00,
2013-05-17 02:11:00,76.0,72.0,29.77,SE,136,7.0,-999.0,88,0.00,,,0.00,,2013-05-17 07:11:00,
2013-05-17 02:21:00,76.0,73.0,29.77,SSE,148,4.0,-999.0,89,0.00,,,0.00,,2013-05-17 07:21:00,
2013-05-17 02:32:00,76.0,73.0,29.77,SE,146,5.0,-999.0,89,0.00,,,0.00,,2013-05-17 07:32:00,
2013-05-17 02:43:00,76.0,73.0,29.77,SE,146,5.0,-999.0,89,0.00,,,0.00,,2013-05-17 07:43:00,
2013-05-17 02:53:00,76.0,73.0,29.77,SE,136,7.0,-999.0,89,0.00,,,0.00,,2013-05-17 07:53:00,
2013-05-17 03:02:00,76.0,73.0,29.76,SE,144,6.0,-999.0,89,0.00,,,0.00,,2013-05-17 08:02:00,
2013-05-17 03:12:00,76.0,73.0,29.76,SE,144,6.0,-999.0,89,0.00,,,0.00,,2013-05-17 08:12:00,
2013-05-17 03:22:00,76.0,72.0,29.76,SSE,156,4.0,-999.0,88,0.00,,,0.00,,2013-05-17 08:22:00,
2013-05-17 03:33:00,76.0,72.0,29.76,South,171,7.0,-999.0,87,0.00,,,0.00,,2013-05-17 08:33:00,
2013-05-17 03:42:00,76.0,72.0,29.76,South,171,7.0,-999.0,87,0.00,,,0.00,,2013-05-17 08:42:00,
2013-05-17 03:52:00,76.0,72.0,29.76,South,180,10.0,-999.0,87,0.00,,,0.00,,2013-05-17 08:52:00,
2013-05-17 04:02:00,76.0,72.0,29.76,SSE,151,8.0,-999.0,87,0.00,,,0.00,,2013-05-17 09:02:00,
2013-05-17 04:12:00,76.0,72.0,29.76,SSE,151,8.0,-999.0,87,0.00,,,0.00,,2013-05-17 09:12:00,
2013-05-17 04:22:00,76.0,72.0,29.76,SSE,155,5.0,-999.0,87,0.00,,,0.00,,2013-05-17 09:22:00,
2013-05-17 04:33:00,75.0,71.0,29.76,SSE,161,5.0,-999.0,87,0.00,,,0.00,,2013-05-17 09:33:00,
2013-05-17 04:42:00,75.0,71.0,29.76,SSE,161,5.0,-999.0,87,0.00,,,0.00,,2013-05-17 09:42:00,
2013-05-17 04:53:00,75.0,71.0,29.77,SSE,163,8.0,-999.0,87,0.00,,,0.00,,2013-05-17 09:53:00,
2013-05-17 05:03:00,75.0,71.0,29.77,SE,143,6.0,-999.0,87,0.00,,,0.00,,2013-05-17 10:03:00,
2013-05-17 05:12:00,75.0,71.0,29.77,SE,143,6.0,-999.0,87,0.00,,,0.00,,2013-05-17 10:12:00,
2013-05-17 05:23:00,75.0,71.0,29.77,SE,146,5.0,-999.0,87,0.00,,,0.00,,2013-05-17 10:23:00,
2013-05-17 05:32:00,75.0,71.0,29.77,SSE,151,3.0,-999.0,87,0.00,,,0.00,,2013-05-17 10:32:00,
2013-05-17 05:42:00,75.0,71.0,29.77,SSE,151,3.0,-999.0,87,0.00,,,0.00,,2013-05-17 10:42:00,
2013-05-17 05:53:00,75.0,71.0,29.77,SSE,156,3.0,-999.0,87,0.00,,,0.00,,2013-05-17 10:53:00,
2013-05-17 06:02:00,75.0,71.0,29.77,SSE,156,3.0,-999.0,87,0.00,,,0.00,,2013-05-17 11:02:00,
2013-05-17 06:12:00,75.0,71.0,29.77,SSE,156,3.0,-999.0,87,0.00,,,0.00,,2013-05-17 11:12:00,
2013-05-17 06:22:00,75.0,71.0,29.78,SSE,155,6.0,-999.0,87,0.00,,,0.00,,2013-05-17 11:22:00,
2013-05-17 06:34:00,75.0,71.0,29.78,SSE,156,5.0,-999.0,87,0.00,,,0.00,,2013-05-17 11:34:00,
2013-05-17 06:42:00,75.0,71.0,29.78,SSE,156,5.0,-999.0,87,0.00,,,0.00,,2013-05-17 11:42:00,
2013-05-17 06:53:00,75.0,71.0,29.78,SSW,196,4.0,-999.0,86,0.00,,,0.00,,2013-05-17 11:53:00,
2013-05-17 07:03:00,75.0,70.0,29.78,SSE,161,4.0,-999.0,85,0.00,,,0.00,,2013-05-17 12:03:00,
2013-05-17 07:12:00,75.0,70.0,29.78,SSE,161,4.0,-999.0,85,0.00,,,0.00,,2013-05-17 12:12:00,
2013-05-17 07:23:00,75.0,70.0,29.79,South,184,5.0,-999.0,85,0.00,,,0.00,,2013-05-17 12:23:00,
2013-05-17 07:32:00,75.0,71.0,29.80,SSE,161,4.0,-999.0,86,0.00,,,0.00,,2013-05-17 12:32:00,
2013-05-17 07:43:00,75.0,71.0,29.80,SSE,161,4.0,-999.0,86,0.00,,,0.00,,2013-05-17 12:43:00,
2013-05-17 07:53:00,75.0,70.0,29.80,SSE,168,6.0,-999.0,85,0.00,,,0.00,,2013-05-17 12:53:00,
2013-05-17 08:03:00,75.0,70.0,29.81,SSE,159,9.0,-999.0,85,0.00,,,0.00,,2013-05-17 13:03:00,
2013-05-17 08:12:00,75.0,70.0,29.81,SSE,159,9.0,-999.0,85,0.00,,,0.00,,2013-05-17 13:12:00,
2013-05-17 08:23:00,75.0,70.0,29.82,South,170,3.0,-999.0,85,0.00,,,0.00,,2013-05-17 13:23:00,
2013-05-17 08:33:00,75.0,69.0,29.82,South,171,7.0,-999.0,83,0.00,,,0.00,,2013-05-17 13:33:00,
2013-05-17 08:42:00,75.0,69.0,29.82,South,171,7.0,-999.0,83,0.00,,,0.00,,2013-05-17 13:42:00,
2013-05-17 08:52:00,75.0,69.0,29.83,South,179,9.0,-999.0,82,0.00,,,0.00,,2013-05-17 13:52:00,
2013-05-17 09:02:00,75.0,69.0,29.83,South,182,8.0,-999.0,82,0.00,,,0.00,,2013-05-17 14:02:00,
2013-05-17 09:13:00,75.0,69.0,29.83,South,182,8.0,-999.0,82,0.00,,,0.00,,2013-05-17 14:13:00,
2013-05-17 09:22:00,76.0,70.0,29.83,South,178,5.0,-999.0,82,0.00,,,0.00,,2013-05-17 14:22:00,
2013-05-17 09:34:00,76.0,70.0,29.83,SSE,163,7.0,-999.0,81,0.00,,,0.00,,2013-05-17 14:34:00,
2013-05-17 09:43:00,76.0,70.0,29.83,SSE,163,7.0,-999.0,81,0.00,,,0.00,,2013-05-17 14:43:00,
2013-05-17 09:53:00,76.0,69.0,29.83,SSE,155,9.0,-999.0,80,0.00,,,0.00,,2013-05-17 14:53:00,
2013-05-17 10:03:00,76.0,70.0,29.83,South,174,5.0,-999.0,81,0.00,,,0.00,,2013-05-17 15:03:00,
2013-05-17 10:14:00,76.0,70.0,29.83,South,174,5.0,-999.0,81,0.00,,,0.00,,2013-05-17 15:14:00,
2013-05-17 10:25:00,77.0,70.0,29.83,SSE,162,5.0,-999.0,79,0.00,,,0.00,,2013-05-17 15:25:00,
2013-05-17 10:37:00,77.0,70.0,29.83,South,186,8.0,-999.0,79,0.00,,,0.00,,2013-05-17 15:37:00,
2013-05-17 10:47:00,77.0,70.0,29.83,South,186,8.0,-999.0,79,0.00,,,0.00,,2013-05-17 15:47:00,
2013-05-17 10:57:00,78.0,71.0,29.83,South,181,5.0,-999.0,79,0.00,,,0.00,,2013-05-17 15:57:00,
2013-05-17 11:07:00,78.0,71.0,29.83,SSE,148,7.0,-999.0,79,0.00,,,0.00,,2013-05-17 16:07:00,
2013-05-17 11:13:00,78.0,71.0,29.83,SSE,148,7.0,-999.0,79,0.00,,,0.00,,2013-05-17 16:13:00,
2013-05-17 11:26:00,79.0,72.0,29.83,SSE,160,7.0,-999.0,78,0.00,,,0.00,,2013-05-17 16:26:00,
2013-05-17 11:37:00,80.0,72.0,29.83,SE,144,6.0,-999.0,77,0.00,,,0.00,,2013-05-17 16:37:00,
2013-05-17 11:49:00,80.0,72.0,29.83,SE,144,6.0,-999.0,77,0.00,,,0.00,,2013-05-17 16:49:00,
2013-05-17 11:56:00,80.0,72.0,29.83,SSE,154,8.0,-999.0,77,0.00,,,0.00,,2013-05-17 16:56:00,
2013-05-17 12:08:00,80.0,72.0,29.83,SSE,154,8.0,-999.0,77,0.00,,,0.00,,2013-05-17 17:08:00,
2013-05-17 12:18:00,80.0,72.0,29.83,SSE,154,8.0,-999.0,77,0.00,,,0.00,,2013-05-17 17:18:00,
2013-05-17 12:30:00,82.0,72.0,29.83,SSE,160,4.0,-999.0,73,0.00,,,0.00,,2013-05-17 17:30:00,
2013-05-17 12:40:00,83.0,-99.9,29.83,SSE,153,6.0,-999.0,73,0.00,,,0.00,,2013-05-17 17:40:00,
2013-05-17 12:49:00,83.0,73.0,29.83,SSE,153,6.0,-999.0,73,0.00,,,0.00,,2013-05-17 17:49:00,
2013-05-17 13:00:00,84.0,74.0,29.83,SE,146,10.0,-999.0,72,0.00,,,0.00,,2013-05-17 18:00:00,
2013-05-17 13:08:00,85.0,74.0,29.82,ESE,114,4.0,-999.0,70,0.00,,,0.00,,2013-05-17 18:08:00,
2013-05-17 13:20:00,85.0,74.0,29.82,ESE,114,4.0,-999.0,70,0.00,,,0.00,,2013-05-17 18:20:00,
2013-05-17 13:30:00,86.0,74.0,29.82,SSE,167,7.0,-999.0,68,0.00,,,0.00,,2013-05-17 18:30:00,
2013-05-17 13:40:00,87.0,-99.9,29.81,SE,137,9.0,-999.0,66,0.00,,,0.00,,2013-05-17 18:40:00,
2013-05-17 13:50:00,-999.0,-99.9,29.81,SE,137,9.0,-999.0,66,0.00,,,0.00,,2013-05-17 18:50:00,
2013-05-17 14:00:00,88.0,75.0,29.81,South,176,4.0,-999.0,65,0.00,,,0.00,,2013-05-17 19:00:00,
2013-05-17 14:10:00,89.0,75.0,29.80,South,182,4.0,-999.0,63,0.00,,,0.00,,2013-05-17 19:10:00,
2013-05-17 14:20:00,89.0,75.0,29.80,South,182,4.0,-999.0,63,0.00,,,0.00,,2013-05-17 19:20:00,
2013-05-17 14:30:00,90.0,75.0,29.80,SSE,153,4.0,-999.0,62,0.00,,,0.00,,2013-05-17 19:30:00,
2013-05-17 14:40:00,90.0,74.0,29.80,SSE,161,9.0,-999.0,60,0.00,,,0.00,,2013-05-17 19:40:00,
2013-05-17 14:50:00,90.0,74.0,29.80,SSE,161,9.0,-999.0,60,0.00,,,0.00,,2013-05-17 19:50:00,
2013-05-17 15:01:00,-999.0,-99.9,29.80,SSE,149,10.0,-999.0,58,0.00,,,0.00,,2013-05-17 20:01:00,
2013-05-17 15:09:00,91.0,73.0,29.79,SSE,166,6.0,-999.0,56,0.00,,,0.00,,2013-05-17 20:09:00,
2013-05-17 15:20:00,91.0,73.0,29.79,SSE,166,6.0,-999.0,56,0.00,,,0.00,,2013-05-17 20:20:00,
2013-05-17 15:30:00,91.0,73.0,29.79,East,97,9.0,-999.0,56,0.00,,,0.00,,2013-05-17 20:30:00,
2013-05-17 15:40:00,92.0,73.0,29.79,SSE,157,8.0,-999.0,55,0.00,,,0.00,,2013-05-17 20:40:00,
2013-05-17 15:50:00,92.0,73.0,29.79,SSE,157,8.0,-999.0,55,0.00,,,0.00,,2013-05-17 20:50:00,
2013-05-17 15:58:00,93.0,73.0,29.78,SE,146,12.0,-999.0,53,0.00,,,0.00,,2013-05-17 20:58:00,
2013-05-17 16:07:00,93.0,73.0,29.78,South,178,11.0,-999.0,52,0.00,,,0.00,,2013-05-17 21:07:00,
2013-05-17 16:17:00,93.0,73.0,29.78,South,178,11.0,-999.0,52,0.00,,,0.00,,2013-05-17 21:17:00,
2013-05-17 16:26:00,94.0,74.0,29.77,SSE,147,11.0,-999.0,52,0.00,,,0.00,,2013-05-17 21:26:00,
2013-05-17 16:39:00,94.0,73.0,29.76,SE,126,7.0,-999.0,51,0.00,,,0.00,,2013-05-17 21:39:00,
2013-05-17 16:49:00,94.0,73.0,29.76,SE,126,7.0,-999.0,51,0.00,,,0.00,,2013-05-17 21:49:00,
2013-05-17 16:58:00,94.0,72.0,29.75,SE,140,9.0,-999.0,50,0.00,,,0.00,,2013-05-17 21:58:00,
2013-05-17 17:06:00,95.0,73.0,29.75,SE,144,6.0,-999.0,50,0.00,,,0.00,,2013-05-17 22:06:00,
2013-05-17 17:17:00,95.0,73.0,29.75,SE,144,6.0,-999.0,50,0.00,,,0.00,,2013-05-17 22:17:00,
2013-05-17 17:28:00,95.0,72.0,29.75,SE,142,7.0,-999.0,47,0.00,,,0.00,,2013-05-17 22:28:00,
2013-05-17 17:38:00,95.0,72.0,29.74,SSE,157,7.0,-999.0,48,0.00,,,0.00,,2013-05-17 22:38:00,
2013-05-17 17:47:00,95.0,72.0,29.74,SSE,157,7.0,-999.0,48,0.00,,,0.00,,2013-05-17 22:47:00,
2013-05-17 17:55:00,94.0,72.0,29.74,SE,146,6.0,-999.0,50,0.00,,,0.00,,2013-05-17 22:55:00,
2013-05-17 18:04:00,94.0,72.0,29.74,SE,130,5.0,-999.0,50,0.00,,,0.00,,2013-05-17 23:04:00,
2013-05-17 18:13:00,94.0,72.0,29.74,SE,130,5.0,-999.0,50,0.00,,,0.00,,2013-05-17 23:13:00,
2013-05-17 18:23:00,94.0,74.0,29.74,SSE,166,7.0,-999.0,52,0.00,,,0.00,,2013-05-17 23:23:00,
2013-05-17 18:37:00,93.0,73.0,29.74,SE,142,6.0,-999.0,53,0.00,,,0.00,,2013-05-17 23:37:00,
2013-05-17 18:47:00,93.0,73.0,29.74,SE,142,6.0,-999.0,53,0.00,,,0.00,,2013-05-17 23:47:00,
2013-05-17 18:54:00,92.0,73.0,29.74,ESE,120,8.0,-999.0,55,0.00,,,0.00,,2013-05-17 23:54:00,
2013-05-17 19:02:00,91.0,74.0,29.74,ESE,105,11.0,-999.0,58,0.00,,,0.00,,2013-05-18 00:02:00,
2013-05-17 19:14:00,91.0,74.0,29.74,ESE,105,11.0,-999.0,58,0.00,,,0.00,,2013-05-18 00:14:00,
2013-05-17 19:22:00,90.0,74.0,29.75,SSE,148,9.0,-999.0,59,0.00,,,0.00,,2013-05-18 00:22:00,
2013-05-17 19:33:00,89.0,74.0,29.75,ESE,122,8.0,-999.0,61,0.00,,,0.00,,2013-05-18 00:33:00,
2013-05-17 19:44:00,89.0,74.0,29.75,ESE,122,8.0,-999.0,61,0.00,,,0.00,,2013-05-18 00:44:00,
2013-05-17 19:54:00,88.0,74.0,29.75,SE,131,6.0,-999.0,63,0.00,,,0.00,,2013-05-18 00:54:00,
2013-05-17 20:02:00,86.0,73.0,29.76,ESE,111,11.0,-999.0,66,0.00,,,0.00,,2013-05-18 01:02:00,
2013-05-17 20:13:00,86.0,73.0,29.76,ESE,111,11.0,-999.0,66,0.00,,,0.00,,2013-05-18 01:13:00,
2013-05-17 20:24:00,85.0,74.0,29.76,ESE,113,11.0,-999.0,69,0.00,,,0.00,,2013-05-18 01:24:00,
2013-05-17 20:32:00,84.0,73.0,29.77,ESE,113,7.0,-999.0,70,0.00,,,0.00,,2013-05-18 01:32:00,
2013-05-17 20:42:00,84.0,73.0,29.77,ESE,113,7.0,-999.0,70,0.00,,,0.00,,2013-05-18 01:42:00,
2013-05-17 20:52:00,83.0,73.0,29.78,SE,132,7.0,-999.0,71,0.00,,,0.00,,2013-05-18 01:52:00,
2013-05-17 21:02:00,83.0,73.0,29.79,ESE,123,8.0,-999.0,72,0.00,,,0.00,,2013-05-18 02:02:00,
2013-05-17 21:12:00,83.0,73.0,29.79,ESE,123,8.0,-999.0,72,0.00,,,0.00,,2013-05-18 02:12:00,
2013-05-17 21:22:00,82.0,73.0,29.80,SE,124,6.0,-999.0,74,0.00,,,0.00,,2013-05-18 02:22:00,
2013-05-17 21:31:00,81.0,72.0,29.81,ESE,116,7.0,-999.0,75,0.00,,,0.00,,2013-05-18 02:31:00,
2013-05-17 21:42:00,81.0,72.0,29.81,ESE,116,7.0,-999.0,75,0.00,,,0.00,,2013-05-18 02:42:00,
2013-05-17 21:54:00,80.0,72.0,29.82,SE,139,6.0,-999.0,77,0.00,,,0.00,,2013-05-18 02:54:00,
2013-05-17 22:02:00,80.0,72.0,29.82,ESE,108,5.0,-999.0,77,0.00,,,0.00,,2013-05-18 03:02:00,
2013-05-17 22:12:00,80.0,72.0,29.82,ESE,108,5.0,-999.0,77,0.00,,,0.00,,2013-05-18 03:12:00,
2013-05-17 22:22:00,80.0,72.0,29.82,SE,144,5.0,-999.0,78,0.00,,,0.00,,2013-05-18 03:22:00,
2013-05-17 22:32:00,79.0,72.0,29.83,SE,134,4.0,-999.0,79,0.00,,,0.00,,2013-05-18 03:32:00,
2013-05-17 22:43:00,79.0,72.0,29.83,SE,134,4.0,-999.0,79,0.00,,,0.00,,2013-05-18 03:43:00,
2013-05-17 22:53:00,78.0,71.0,29.83,SSE,148,7.0,-999.0,79,0.00,,,0.00,,2013-05-18 03:53:00,
2013-05-17 23:02:00,78.0,71.0,29.84,SE,132,3.0,-999.0,80,0.00,,,0.00,,2013-05-18 04:02:00,
2013-05-17 23:12:00,78.0,71.0,29.84,SE,132,3.0,-999.0,80,0.00,,,0.00,,2013-05-18 04:12:00,
2013-05-17 23:23:00,77.0,71.0,29.85,SE,140,2.0,-999.0,81,0.00,,,0.00,,2013-05-18 04:23:00,
2013-05-17 23:33:00,76.0,69.0,29.86,SE,140,3.0,-999.0,80,0.00,,,0.00,,2013-05-18 04:33:00,
2013-05-17 23:42:00,76.0,69.0,29.86,SE,140,3.0,-999.0,80,0.00,,,0.00,,2013-05-18 04:42:00,
2013-05-17 23:52:00,77.0,69.0,29.86,ESE,121,3.0,-999.0,76,0.00,,,0.00,,2013-05-18 04:52:00,